Terug naar catalogus

STARLINK-5143

ActiefCommunicatieVLEO
NORAD 54089·PAYLOAD·🇺🇸 United States

Gelanceerd Oct 20, 2022 vanaf Cape Canaveral Space Force Station

Loading…

Volgende Passages (komende 24 uur)

TLE

VersSource: CelesTrak SupGP

Epoch: Sep 15, 2026, 02:15 UTC

1 54089C 22136AQ  26258.09423611  .00510050  00000+0  21076-1 0  2584
2 54089  53.1608 202.4910 0001242  88.5184  78.1905 15.23215222    18

Volg STARLINK-5143 in realtime met AllMySat

Download on the App Store